CAPE
1864 1703 2017 1939 1946 2116 1945 1780 1796 1722 1811 1594 1582 1820 1904 1813 1912 1986 1972 2127 1970 1306 1131 603 448 262 218 231 188 131 212 488 336 444 470 371 478 2504 2301 2610 2146 2336 2492 2542 2478 2569 2439 2285 2259 2283 2306 2364 2238 2165 2038 1719 1642 1590 1536 1512 1492 1510 1664 1719 1707 1696 1720 1684 1746 1813 1730 1808 1785 1630 1616 1567 1541 1558 1584 1542 1486 1425 1328 1382 1332
2067 2003 2014 2253 2367 2337 2250 1846 1794 2041 1864 1664 1206 1532 1782 1837 1924 2106 1883 1872 1553 1120 871 439 240 104 240 431 296 263 148 229 336 322 453 380 356 3201 2408 2310 2352 2305 2433 2498 2632 2297 2388 2279 2254 2227 2075 2359 2122 2463 2243 1947 1683 1647 1431 1472 1546 1544 1634 1670 1814 1750 1660 1806 1762 1852 1708 1858 1954 1940 1774 1491 1595 1696 1685 1658 1599 1511 1493 1484 1558
2067 2134 2264 2314 2359 2334 2247 2188 2054 1710 1590 1474 1360 1638 1968 1994 2206 2173 2027 1821 1870 896 758 295 222 185 238 202 395 185 136 153 205 111 213 350 406 1172 2620 2451 2101 2672 2478 2406 2526 2522 2226 2347 2489 2200 2201 2139 2294 2577 2522 2328 2020 1817 1753 1513 1505 1452 1530 1698 1734 1798 1755 1825 1816 1804 1825 1740 1718 1660 1684 1560 1682 1780 1825 1804 1696 1613 1576 1680 1680
2928 3176 2723 2441 2348 2165 2134 2163 2054 1564 1802 1664 2130 1900 2171 2064 2406 2704 1989 1793 1335 550 420 274 219 128 184 189 165 138 146 75 21 33 58 20 113 426 925 2430 2499 2222 2496 2586 2574 2623 2471 2423 2474 2558 2329 2221 2245 2506 2564 2490 2607 2354 2040 1748 1525 1482 1457 1584 1716 1771 1797 1778 1858 1942 1952 1828 1783 1688 1599 1612 1680 1625 1890 1847 1768 1681 1610 1603 1708
3584 3266 2966 2779 2378 2654 2249 2020 1973 1793 1578 2521 2792 2526 2208 2233 2001 2299 2174 1302 598 484 419 159 112 295 273 180 123 322 362 124 131 118 43 66 106 439 334 811 2698 2546 2034 2406 2810 2662 2826 2674 2560 2420 2536 2289 2273 2300 2139 1977 2412 2510 2358 2132 1917 1630 1497 1509 1588 1660 1686 1753 1829 1846 1934 2013 1950 1870 1805 1900 1606 1430 1504 1565 1458 1794 1719 1602 1718
3265 3759 3486 2762 2278 2350 2516 2072 2060 2507 2591 2880 3027 2053 2115 1902 1861 1742 1578 524 482 459 333 384 390 340 296 250 234 360 275 324 85 68 18 48 313 121 239 363 608 2347 2620 2252 2232 2722 2803 2722 2558 2384 2426 2459 2197 2062 2257 2246 1948 2044 2366 2214 2275 2034 1786 1547 1482 1565 1668 1728 1813 1924 1975 2004 2060 2042 1918 1946 2062 2063 1884 1600 1372 1433 1808 1813 1803
3686 4460 3729 3189 2542 2142 2233 2438 2422 1862 2332 2020 2708 2203 1794 1512 1467 1642 1129 475 438 395 354 342 394 492 464 376 242 334 324 296 193 48 259 396 277 291 295 428 436 480 1496 2652 2301 2138 2612 2833 2802 2630 2475 2362 2233 2245 2061 1848 1844 1959 1924 1808 2159 1896 1759 1529 1190 1336 1490 1682 1742 1694 1737 1702 1787 2097 2228 2110 2107 2203 2231 2146 2030 1970 1990 2014 1974
4301 4825 3728 3288 2914 2010 2269 2210 2166 3308 2009 2056 3140 2053 1826 1451 1515 962 758 616 564 486 345 156 442 431 456 338 406 348 231 333 102 172 68 75 439 372 450 595 681 760 1020 367 1787 2219 2287 2850 2745 2783 2645 2591 2461 2081 1973 1783 1722 1456 1668 1812 1914 2010 2048 2061 1518 1510 1498 1470 1693 1759 1774 1850 1734 1751 1863 2192 2220 2177 2274 2364 2326 2190 2052 1936 2090
4925 4826 4178 3841 2794 2505 1880 2538 2438 2881 2684 2328 2909 2066 1362 1325 1723 920 716 750 548 454 174 313 392 334 357 337 248 318 352 304 170 162 378 482 268 336 373 788 1139 950 1977 570 529 2113 2232 2404 2819 2560 2346 2470 2546 2598 2046 1972 1798 1602 1605 1906 1726 1790 1810 1714 2065 1770 1822 2115 2223 2130 2124 2124 2082 2005 1888 1819 2016 2103 2213 2248 2411 2421 2232 1987 1972
5002 4830 4340 3622 3297 3214 2946 2477 1901 2400 2378 1890 1731 1908 1552 1262 1052 686 526 688 616 362 133 340 394 401 272 173 470 473 418 293 381 308 384 442 403 8 313 328 350 1333 1690 1889 1459 1042 1697 2092 2214 2377 2359 2113 2338 2227 2150 1991 1877 1758 1788 1906 1832 1602 1607 1557 1498 1578 1636 1758 1803 1795 1940 1988 1981 2247 1942 1764 1965 2164 2184 2146 2148 2240 2184 2256 2223
4679 4475 4058 3447 3075 3084 2848 2418 1962 2170 3106 1981 2097 1796 1532 836 818 753 701 739 693 574 310 344 333 464 458 304 568 625 491 409 349 375 317 53 5 0 21 206 325 678 576 807 1526 2046 2278 1976 2059 2080 2203 2372 2318 2232 2060 2107 1931 1752 1740 1948 1797 1810 1486 1540 1538 1459 1511 1513 1564 1705 1692 1717 1944 2160 2228 2198 2292 2362 2377 2186 2199 1978 1909 1965 2099
4503 4160 3911 3376 3081 3016 2663 2868 2706 2353 1918 1679 1557 1186 1067 902 734 862 834 808 813 487 215 67 121 236 372 458 584 600 490 565 448 407 344 74 46 0 14 94 158 214 157 396 431 576 933 1226 2209 2217 2063 2441 2308 2248 2220 2197 2010 1965 1826 1782 1576 1617 1639 1606 1654 1623 1596 1568 1353 1328 1511 1548 1472 1638 1850 2036 2145 2350 2389 2378 2253 2097 2103 2137 2082
4213 4166 3848 3562 3373 3164 3138 3401 2961 2135 1541 1540 1001 978 1177 672 741 677 595 760 428 226 108 131 440 652 588 530 538 351 580 410 374 247 70 2 7 5 4 10 14 14 158 75 264 483 637 756 743 944 1432 2116 2045 2049 1924 1655 1796 1698 1639 1709 1716 1414 1580 1547 1732 1663 1598 1577 1523 1437 1464 1452 1437 1402 1396 1572 1970 2210 2262 2339 2302 2218 2273 2266 2290
4277 4104 4175 3948 3587 3209 3558 3280 2516 1808 1384 1107 1003 757 640 499 634 407 630 60 202 44 105 329 545 658 206 389 266 494 546 295 400 24 6 8 7 12 6 0 0 0 0 38 112 232 325 612 856 1099 1296 1279 1205 2150 1883 2020 1806 1461 1654 1615 1739 1875 1887 1730 1627 1821 1746 1698 1597 1700 1714 1602 1446 1425 1419 1527 1744 1982 2116 2176 2198 2203 2235 2278 2392
4425 3809 3942 3613 3668 3394 3300 3355 2020 1217 1248 1042 989 875 854 389 510 208 233 249 118 253 407 495 612 254 228 26 407 319 688 674 120 58 8 4 3 2 0 0 0 0 0 0 0 60 98 344 742 876 1029 959 1014 1078 1445 1547 1390 1404 922 770 972 1171 1393 1548 1399 1529 1539 1603 1814 1852 1873 1891 1824 1569 1331 1372 1575 1806 1888 2112 2150 2120 2128 2212 2278
3532 3881 2752 2696 2156 1799 1448 1738 1582 1180 1166 1091 744 595 501 406 278 288 379 166 84 343 335 508 280 340 409 616 484 144 63 574 357 96 6 3 0 0 0 0 0 0 0 0 0 0 45 46 500 397 584 627 731 761 867 932 1366 1160 806 490 464 531 755 898 1215 1384 1314 1321 1385 1437 1438 1608 1722 1740 1668 1516 1551 1494 1486 1860 2043 2093 2144 2165 2230
2606 2372 1768 1720 1692 1770 1686 1433 1398 1266 1129 912 534 309 326 400 470 602 588 199 83 30 128 124 340 388 413 527 217 113 456 320 12 69 37 7 3 0 0 0 0 0 0 0 0 0 0 2 35 110 165 227 354 456 657 606 474 969 546 133 38 50 96 266 476 670 790 878 1001 1088 1129 1189 1306 1562 1558 1488 1540 1556 1622 1508 1636 1937 1982 2044 2160
2026 1880 1751 1556 1781 1900 1680 1482 1454 1371 1093 634 294 344 483 527 266 390 291 425 290 145 8 52 100 296 545 382 320 94 218 283 73 694 145 6 13 8 4 0 0 0 0 0 0 0 0 0 0 2 0 23 15 24 46 166 663 272 225 30 0 0 2 40 194 314 231 340 542 821 1013 1059 1050 1304 1361 1479 1484 1480 1563 1384 1447 1499 1661 1884 2010
1860 1935 1794 1444 1540 1764 1660 1478 1219 1002 906 953 595 376 148 353 271 277 316 473 437 319 66 3 197 45 88 150 294 415 235 111 428 256 39 245 33 0 0 0 0 0 0 0 0 0 0 0 0 0 0 0 0 1 0 29 1 0 13 0 0 0 0 0 10 10 0 6 40 96 280 541 710 813 895 1118 1392 1237 1275 1400 1388 1390 1438 1487 1635
1622 1920 1738 1340 1340 1706 1780 1405 971 718 640 702 460 251 179 312 506 370 509 617 594 353 116 136 13 200 216 272 289 326 346 162 117 88 131 24 326 10 0 0 0 0 0 0 0 0 0 0 0 0 0 0 0 0 0 0 22 0 0 0 0 0 0 0 0 0 0 0 0 0 1 41 60 164 419 515 775 1102 1044 1134 1167 1223 1243 1307 1488
2090 1932 1920 1757 1600 1712 1808 1449 1189 899 556 339 171 226 384 457 564 678 604 529 383 302 332 264 76 35 270 432 154 331 233 31 123 56 1 6 19 29 14 4 1 0 0 0 0 0 0 0 0 0 0 0 0 0 0 0 0 0 0 0 0 0 0 0 0 0 0 0 0 0 0 0 0 1 38 110 212 392 683 914 1046 1280 1310 1303 1350
2124 1955 2081 2038 1946 1694 1647 1436 1212 582 352 180 134 180 260 420 345 346 361 238 261 296 243 189 145 164 228 353 368 122 22 0 4 2 18 9 0 0 0 0 12 22 6 4 3 0 0 0 0 0 0 0 0 0 0 0 0 0 0 0 0 0 0 0 0 0 0 0 0 0 0 0 0 0 0 0 0 7 52 272 478 656 880 1190 1399
1758 1611 1738 1924 1895 1714 1404 1378 1136 661 295 171 286 147 102 135 139 202 243 238 245 240 150 162 193 311 180 125 130 1 47 4 7 30 10 1 0 0 0 6 0 0 8 4 8 3 0 0 0 0 0 0 0 0 0 0 0 0 0 0 0 0 0 0 0 0 0 0 0 0 0 0 0 0 0 0 0 0 0 2 22 128 365 487 714
2103 1626 1666 1326 1639 1580 1338 840 831 626 249 184 224 128 88 141 142 314 415 410 312 241 281 182 224 290 172 34 5 3 8 1 2 8 7 10 1 8 0 0 4 9 4 30 38 27 15 6 8 4 0 0 0 0 0 0 0 0 22 5 0 0 0 0 0 0 0 0 0 0 0 0 0 0 0 0 0 0 0 0 0 8 48 122 230
2059 1640 1382 1400 1394 1632 1306 827 815 615 261 164 145 122 173 168 124 183 178 274 352 380 278 85 153 76 36 25 2 1 12 16 4 8 12 22 29 28 6 16 32 21 20 7 55 53 82 71 44 25 2 5 0 0 0 0 0 22 0 0 0 28 0 0 0 0 0 0 0 0 0 0 0 0 0 0 0 0 0 0 0 0 0 0 10
1924 1772 1006 1366 1087 1292 1309 1034 726 530 163 174 208 236 295 311 99 124 114 140 226 175 189 215 92 81 15 31 6 10 4 12 20 18 3 25 32 36 92 67 23 23 37 78 257 61 80 79 14 39 25 60 42 1 0 0 0 282 38 0 0 1 13 28 6 1 0 0 0 0 0 0 0 0 0 0 0 0 0 0 0 0 0 0 0
2132 1948 1761 1355 1149 1010 1238 1132 658 348 282 322 284 389 421 319 308 124 16 19 99 78 92 66 36 44 65 80 43 9 3 14 6 12 28 29 20 22 90 82 39 22 33 85 156 88 36 44 28 21 58 132 84 66 2 0 0 344 0 19 0 0 38 33 21 16 0 8 0 0 0 0 0 0 0 0 0 0 0 0 0 0 0 0 0
2266 2000 1820 1504 1317 824 791 657 692 533 533 516 496 414 422 276 327 141 29 14 28 94 177 72 61 72 139 133 149 71 124 104 73 17 20 39 33 66 83 67 86 28 38 66 41 45 27 54 16 64 54 37 92 98 43 4 0 26 48 26 42 124 168 52 16 28 10 0 0 1 0 0 0 0 0 0 0 0 0 0 0 0 0 0 0
2157 2013 1829 1672 1415 974 901 702 718 730 636 519 465 434 358 274 167 174 33 3 170 144 103 56 202 16 11 69 118 118 148 170 132 109 134 130 163 114 100 79 97 77 48 59 65 8 5 6 7 146 54 117 218 117 140 124 74 42 8 4 28 74 29 31 29 27 20 2 0 0 0 0 0 0 0 0 0 0 0 0 0 0 0 0 0
2079 2120 1968 1478 1459 1163 987 946 820 709 670 468 537 390 325 313 201 256 100 28 40 217 222 220 144 107 42 28 11 25 76 78 74 126 153 166 219 381 361 772 210 163 154 98 76 15 7 7 1 29 581 42 30 62 79 112 72 94 80 116 124 172 55 9 28 32 29 6 0 0 0 0 0 0 0 0 0 0 0 0 0 0 0 0 0
2573 2316 2070 1685 1353 1167 1128 1010 950 806 594 474 536 422 213 267 255 171 182 171 134 59 261 214 187 129 195 78 126 95 56 24 70 62 75 144 204 490 458 619 436 330 361 248 147 106 6 13 5 3 12 50 29 22 28 57 65 25 15 34 92 159 198 387 93 14 0 0 0 0 0 0 0 0 0 0 0 0 0 0 0 0 0 0 0
2719 2573 2232 1841 1344 1245 1036 932 542 585 639 475 403 374 222 176 139 93 74 98 54 29 9 35 36 74 140 114 123 129 54 44 76 112 140 153 217 245 263 222 266 268 264 296 316 330 218 26 9 4 2 31 5 12 32 54 94 193 56 38 127 372 340 377 252 126 27 2 2 0 0 0 0 0 0 0 0 0 1 0 0 0 0 0 0
2796 2645 2441 1818 1607 1274 1114 868 600 760 853 724 557 536 328 247 301 329 279 355 234 140 160 83 13 34 120 109 84 103 130 129 139 100 117 124 106 133 156 147 142 197 377 712 278 219 210 96 22 9 2 4 3 16 43 38 59 145 145 146 102 49 102 217 256 165 96 36 2 2 0 0 0 0 0 0 5 4 2 0 0 0 0 0 0
2923 2758 2420 1695 1617 1385 972 870 707 906 1052 624 294 269 370 404 326 244 233 254 304 506 398 133 108 72 79 155 107 162 149 138 87 100 118 73 31 1 12 4 19 75 138 205 200 188 122 124 77 48 31 14 2 15 18 25 39 44 67 214 344 244 180 114 80 98 8 11 8 0 0 0 0 0 0 0 0 0 1 1 0 0 0 0 0
2959 2700 2464 1746 1679 1606 1113 1028 975 902 1174 740 390 278 330 270 196 232 191 204 241 201 134 215 195 280 164 162 110 149 130 150 133 112 68 27 20 22 18 25 34 40 55 65 73 140 138 178 146 99 102 62 35 38 63 61 144 168 215 265 222 251 308 281 219 151 43 20 4 0 0 0 0 0 0 0 0 0 0 0 0 0 0 0 0
2694 2704 2498 2099 1682 1562 1190 982 1103 1003 880 635 551 362 359 254 298 354 308 273 224 186 223 345 334 397 343 384 157 121 94 116 140 172 130 58 58 98 87 121 162 152 255 332 379 294 248 270 426 365 364 372 332 169 136 162 85 122 155 195 162 154 190 245 312 388 261 76 24 0 0 0 0 0 0 0 0 0 0 0 0 0 0 0 0
2791 2710 2497 2242 1862 1554 1240 1035 1047 1170 754 639 532 407 396 348 388 365 434 408 320 269 342 495 291 483 456 283 168 141 130 125 116 108 84 69 52 93 158 361 208 200 305 596 660 634 842 732 476 528 509 502 359 222 162 135 108 68 63 98 180 277 276 218 148 135 92 51 27 16 10 6 2 0 0 0 0 0 0 0 0 0 0 0 0
2880 2582 2359 1993 1674 1525 1292 1122 1192 1216 876 551 684 721 428 281 370 453 484 472 321 319 299 213 297 539 375 409 233 213 182 152 134 106 187 69 53 99 416 732 999 923 903 807 738 1200 950 1220 1038 813 796 400 570 346 151 43 26 35 51 76 153 312 311 136 73 120 157 110 98 297 388 218 92 8 22 50 14 1 0 0 0 0 0 0 0
2763 2477 2185 1996 1720 1546 1353 1308 1380 1242 574 515 1011 898 669 276 276 568 462 550 321 341 312 248 270 340 374 434 299 159 248 221 204 151 134 104 116 258 670 724 920 1145 1150 1164 690 801 1148 977 622 387 263 292 436 152 116 26 25 43 100 246 502 480 300 100 153 142 184 394 279 81 130 145 168 224 130 88 22 6 0 0 0 0 0 0 0
2521 2356 2288 2144 1839 1562 1604 1614 1479 958 783 863 997 945 724 228 491 636 650 502 277 361 253 234 214 248 258 222 87 135 229 319 312 324 416 240 253 391 533 943 429 769 1042 875 624 339 259 238 156 91 126 153 118 70 40 42 58 106 275 365 278 57 77 286 408 463 444 432 344 236 188 194 307 259 116 64 51 14 0 0 2 0 0 0 0
2345 2096 2142 1960 1783 1666 1657 1642 1347 1013 892 787 873 933 416 286 718 643 514 678 476 437 372 333 463 450 273 194 81 62 193 421 344 317 274 249 221 454 428 277 327 292 444 565 323 267 263 195 162 252 280 167 143 142 57 49 46 56 58 49 50 48 149 208 404 307 280 284 288 182 232 310 286 347 410 561 644 538 448 162 88 76 13 0 0
2505 2233 2222 2032 1707 1636 1540 1538 1185 768 789 892 747 232 398 976 868 479 793 1080 884 848 861 576 492 381 235 181 126 134 278 348 174 900 1194 918 578 466 356 294 420 426 370 411 462 428 272 129 81 56 34 19 21 46 32 16 20 32 33 38 52 261 510 438 310 204 321 290 256 410 432 424 380 454 530 512 447 594 370 262 214 92 64 6 0
2580 2343 1843 1754 1678 1754 1449 1423 1133 729 705 1040 299 443 661 212 423 824 902 1188 1219 1366 1206 927 649 522 483 397 272 77 200 578 344 283 948 738 495 331 145 107 464 566 233 221 306 274 196 95 45 18 20 21 28 24 14 7 9 12 44 214 464 489 475 110 61 240 408 528 588 458 473 540 557 559 578 429 380 346 279 198 87 46 8 0 0
2294 2283 2272 2047 1742 1660 1410 1430 1270 1022 1117 573 554 629 366 506 858 967 961 877 912 1028 1052 878 733 526 339 294 253 205 277 940 738 849 414 343 360 332 254 195 115 58 72 143 146 196 124 70 44 47 53 52 44 24 10 18 145 378 318 246 269 286 167 127 192 216 396 421 429 461 414 481 516 403 311 278 262 238 136 59 12 0 0 0 0
2301 2316 2346 2272 2090 1910 1512 1274 1065 1009 802 485 589 544 140 300 402 490 590 703 818 743 667 612 385 490 538 414 511 556 346 806 401 465 580 596 785 566 421 232 124 46 13 70 12 392 133 64 47 57 86 78 80 109 194 450 493 247 208 150 174 142 164 188 230 209 272 381 257 182 132 152 157 104 79 210 248 191 94 5 2 0 0 0 0
2207 2125 2008 1918 1878 1854 1744 1460 1250 978 605 514 620 410 271 229 153 176 464 454 360 564 389 576 719 761 842 834 582 333 593 342 372 363 351 524 725 596 582 620 718 799 475 114 0 0 34 71 171 159 144 251 399 383 281 122 86 74 26 6 3 2 8 43 90 84 106 126 164 79 100 188 160 170 202 237 161 105 159 73 0 0 0 0 0
2144 2015 1858 1617 1520 1439 1288 1278 1217 1114 693 917 640 560 391 336 111 243 326 164 455 604 614 509 598 650 732 403 226 316 208 249 342 458 658 689 623 478 256 340 616 331 182 86 297 280 197 139 297 481 120 23 24 5 2 3 0 0 0 0 0 1 3 18 60 101 108 186 293 269 303 324 287 178 154 26 1 0 0 0 0 0 0 0 0
2396 2121 2082 1874 1551 1293 1223 1182 1186 1080 1072 940 652 446 353 297 228 72 423 318 204 299 287 337 492 1254 780 544 418 276 290 211 256 186 346 614 377 162 194 284 302 205 122 48 62 42 48 15 3 0 0 0 0 0 0 0 0 0 0 0 4 10 16 22 46 36 29 18 83 136 20 8 20 2 0 0 0 0 0 0 0 0 0 0 0
2558 2279 2039 1802 1376 1352 1446 1348 1236 985 992 936 666 503 360 316 298 272 231 159 257 275 466 658 1101 868 684 474 583 479 307 591 538 350 475 609 355 406 215 118 130 135 59 61 241 0 0 0 0 0 0 0 0 0 0 0 0 2 0 5 2 2 8 12 13 6 4 3 0 4 2 7 1 3 3 0 0 0 0 0 0 0 0 0 0
2499 2217 2144 1874 1324 1100 1198 1068 1098 1048 932 866 724 629 376 348 300 340 472 508 505 769 816 838 975 962 632 682 573 684 669 594 318 142 306 508 325 153 44 32 52 30 13 3 11 704 8 0 0 0 0 0 0 0 0 0 0 0 6 16 10 9 10 16 8 30 10 8 1 0 10 8 2 8 12 1 0 0 0 0 0 12 0 0 0
2287 2228 1698 1573 1475 1393 1456 1439 1355 1226 982 803 721 599 539 498 354 640 662 614 768 774 940 1120 964 847 970 522 470 676 709 562 321 247 382 402 122 29 36 46 37 4 2 3 10 53 38 7 82 138 507 231 111 258 334 10 0 0 19 58 48 41 50 47 17 9 6 0 0 3 12 5 4 2 0 0 0 0 0 7 35 54 30 2 0
Wind_Speed
12 12 12 12 12 13 15 15 13 13 12 15 13 13 14 14 13 13 13 13 13 12 12 13 15 13 9 11 11 12 13 11 11 9 11 9 10 14 15 13 12 11 10 10 10 12 12 13 13 12 14 15 16 16 17 16 15 14 14 13 13 12 12 11 10 10 11 10 9 9 10 10 10 10 10 9 9 10 10 11 11 11 10 9 9
11 11 11 12 12 13 14 14 14 13 14 14 14 13 14 13 13 13 12 12 11 10 11 12 12 8 10 8 11 10 8 9 8 9 9 9 9 14 17 13 12 11 10 10 10 12 13 15 15 13 12 14 16 17 18 17 16 15 14 13 13 12 12 11 10 10 10 10 9 8 8 8 9 9 10 10 9 9 9 10 10 10 10 10 9
12 10 11 11 12 13 14 12 13 15 14 14 14 14 13 14 13 13 12 12 11 10 12 12 10 11 7 9 9 9 8 8 7 10 14 10 8 9 16 19 16 14 13 12 12 12 13 14 17 16 14 13 15 16 18 18 17 16 15 14 13 13 12 11 10 10 9 10 9 8 7 7 7 8 8 9 10 9 9 10 10 10 10 10 10
10 9 11 10 11 12 12 13 12 12 12 13 12 11 12 12 12 11 11 12 11 12 11 11 10 8 7 12 7 8 7 nan nan nan nan nan 7 8 10 15 18 17 16 15 14 16 14 15 15 15 15 14 14 14 15 17 16 15 15 15 15 15 15 13 11 10 9 9 9 8 7 6 6 6 6 7 9 9 9 9 10 10 11 10 10
8 9 10 10 10 10 12 12 12 12 11 9 11 11 12 14 14 13 12 10 11 10 10 9 6 6 11 7 8 8 8 8 9 9 nan nan 7 8 6 9 15 18 18 17 17 16 17 17 17 17 16 15 14 12 12 13 14 12 11 13 15 17 17 16 13 11 9 9 9 9 7 6 5 4 5 5 6 6 7 7 8 9 10 10 10
8 8 8 10 10 10 10 9 10 10 10 12 12 13 14 10 8 11 10 11 9 9 8 9 8 8 7 6 9 7 7 10 nan nan nan nan 3 3 7 7 9 12 14 19 18 18 17 18 19 19 18 17 15 12 10 10 10 10 9 10 12 16 18 18 15 12 11 9 9 8 7 6 5 4 4 4 5 6 5 5 5 7 8 9 9
8 7 7 7 9 6 9 7 1 7 9 7 11 10 10 10 13 9 9 10 10 7 8 9 9 9 9 8 8 7 7 7 9 nan 13 9 10 5 3 2 2 4 11 14 18 20 18 19 19 20 19 18 15 13 8 5 7 8 9 11 12 13 18 20 18 14 12 11 10 8 7 5 4 4 4 4 4 5 6 5 5 5 6 7 8
8 7 7 8 8 9 2 7 12 8 9 9 11 9 9 8 10 11 12 10 8 8 7 7 7 8 8 9 9 8 8 7 6 9 nan nan 7 8 7 5 4 2 1 4 13 15 19 17 17 19 19 18 17 14 10 8 7 9 10 9 8 12 17 21 16 14 14 13 11 9 7 7 5 4 3 3 3 4 5 6 6 5 5 6 7
8 9 8 9 8 7 11 3 5 7 5 10 11 12 13 14 13 12 10 9 9 8 7 7 8 7 9 8 8 8 7 6 7 7 10 9 9 12 12 11 8 5 4 3 3 13 15 16 16 16 17 17 16 16 19 15 14 12 10 11 9 11 16 18 14 17 21 19 14 10 8 8 8 7 5 3 1 2 2 3 4 5 5 5 6
8 8 9 8 7 7 7 7 5 9 10 7 9 10 15 13 13 14 11 10 9 7 7 7 7 7 7 7 8 8 7 9 8 8 10 11 14 nan 13 11 11 8 6 7 5 9 12 15 16 16 16 15 14 14 17 20 16 13 12 9 10 13 11 4 9 17 19 19 13 9 10 10 9 10 10 7 4 3 2 1 2 3 3 4 4
8 8 8 8 9 9 9 12 10 7 9 8 11 14 13 14 12 11 12 11 10 8 8 8 8 10 11 9 11 9 9 8 9 8 6 nan nan nan nan 11 11 11 11 9 8 8 8 11 11 12 13 16 15 15 14 14 16 16 13 11 7 8 9 4 7 12 15 12 4 8 11 11 11 10 9 9 8 7 6 4 3 2 2 3 3
8 8 9 8 9 9 11 12 13 11 9 7 10 12 14 14 12 11 11 11 13 10 9 nan 8 8 9 10 12 13 10 10 10 10 10 nan nan nan nan nan 13 9 10 9 9 9 8 6 8 13 12 15 15 17 16 15 14 13 13 13 15 13 12 8 9 12 14 12 6 9 9 8 9 11 10 10 9 10 9 7 6 3 1 1 1
8 9 9 10 10 10 11 12 14 15 14 9 10 13 15 13 13 12 10 10 10 12 11 8 7 8 12 10 15 12 15 13 12 13 nan nan nan nan nan nan nan nan 10 nan 10 10 9 8 7 9 14 16 12 15 17 16 15 15 15 15 16 14 11 9 10 8 10 12 11 8 8 9 10 10 11 13 14 13 11 10 8 6 4 3 2
10 11 11 11 11 12 13 14 15 15 16 14 17 17 17 15 13 12 14 nan 9 nan 10 8 9 9 12 12 12 16 11 13 15 nan nan nan nan nan nan nan nan nan nan nan 11 11 10 10 9 9 9 10 14 17 18 19 20 21 21 21 20 19 15 14 13 11 10 9 9 10 9 9 11 11 13 15 15 15 14 12 11 9 7 5 5
12 12 13 13 13 13 15 17 18 17 18 18 17 17 17 15 13 12 12 15 12 11 11 9 7 9 12 nan 11 12 15 10 11 nan nan nan nan nan nan nan nan nan nan nan nan nan nan 10 10 10 10 9 11 13 16 20 22 26 26 25 24 22 20 18 16 14 12 12 11 10 9 9 12 12 12 14 16 16 15 14 13 12 10 8 7
14 15 14 16 16 15 18 19 18 19 18 17 16 17 18 15 14 15 13 9 nan 17 15 14 10 9 10 10 13 11 nan 15 16 nan nan nan nan nan nan nan nan nan nan nan nan nan nan nan 11 11 11 11 11 13 15 17 25 26 27 28 27 25 23 22 21 19 18 16 17 18 17 15 13 13 14 15 14 15 16 17 17 15 14 11 10
17 17 16 17 18 18 18 19 20 19 18 18 17 16 17 16 16 16 14 11 nan nan 15 15 14 12 11 11 11 12 11 10 nan nan nan nan nan nan nan nan nan nan nan nan nan nan nan nan nan 14 14 13 13 13 16 15 16 21 24 26 nan nan nan 24 23 23 22 22 22 22 21 20 20 18 16 15 16 16 18 19 19 18 17 15 13
18 19 20 20 20 19 18 19 19 19 17 15 17 17 15 13 17 15 16 15 12 12 nan nan 15 15 12 13 14 nan 11 11 nan 14 9 nan nan nan nan nan nan nan nan nan nan nan nan nan nan nan nan nan nan nan nan 17 17 20 21 nan nan nan nan nan 25 25 25 25 24 23 24 25 26 26 24 22 21 22 22 20 19 20 20 19 17
21 21 20 19 18 17 17 17 17 17 17 16 16 15 16 16 15 16 15 16 16 13 nan nan 19 nan nan 14 14 13 15 12 12 12 nan 13 nan nan nan nan nan nan nan nan nan nan nan nan nan nan nan nan nan nan nan nan nan nan nan nan nan nan nan nan nan nan nan nan nan nan 26 25 26 27 28 27 25 23 24 25 23 22 21 21 20
18 20 17 17 16 16 16 15 16 15 16 16 14 13 15 17 16 15 16 17 16 15 14 14 nan 16 19 16 17 19 16 14 16 nan 14 nan 15 nan nan nan nan nan nan nan nan nan nan nan nan nan nan nan nan nan nan nan nan nan nan nan nan nan nan nan nan nan nan nan nan nan nan nan nan 27 28 28 30 30 27 26 26 26 26 23 21
14 16 15 15 17 16 17 15 15 15 16 14 14 15 15 15 15 15 15 16 16 17 16 15 nan nan 22 19 17 16 19 nan 23 nan nan nan nan nan nan nan nan nan nan nan nan nan nan nan nan nan nan nan nan nan nan nan nan nan nan nan nan nan nan nan nan nan nan nan nan nan nan nan nan nan nan 29 30 30 31 32 32 32 30 28 26
15 14 16 14 16 16 16 16 15 15 14 13 14 15 16 16 15 14 15 14 18 18 18 18 17 16 21 22 18 20 nan nan nan nan nan nan nan nan nan nan nan nan nan nan nan nan nan nan nan nan nan nan nan nan nan nan nan nan nan nan nan nan nan nan nan nan nan nan nan nan nan nan nan nan nan nan nan nan nan 30 31 33 36 36 33
13 15 14 15 15 16 16 16 15 14 14 15 13 14 16 18 16 17 16 16 19 19 18 20 19 20 20 21 20 nan nan nan nan nan nan nan nan nan nan nan nan nan nan nan nan nan nan nan nan nan nan nan nan nan nan nan nan nan nan nan nan nan nan nan nan nan nan nan nan nan nan nan nan nan nan nan nan nan nan nan nan 31 33 35 37
13 15 16 16 17 16 15 15 16 14 16 16 15 16 nan 20 20 20 19 19 19 19 20 21 22 23 18 nan nan nan nan nan nan nan nan nan nan nan nan nan nan nan nan nan nan nan nan nan nan nan nan nan nan nan nan nan nan nan nan nan nan nan nan nan nan nan nan nan nan nan nan nan nan nan nan nan nan nan nan nan nan nan nan 34 36
16 15 17 17 19 18 17 16 18 18 17 17 20 17 19 16 22 21 20 21 21 22 22 nan 24 nan nan nan nan nan nan nan nan nan nan nan nan nan nan nan nan nan nan nan nan nan nan nan nan nan nan nan nan nan nan nan nan nan nan nan nan nan nan nan nan nan nan nan nan nan nan nan nan nan nan nan nan nan nan nan nan nan nan nan nan
18 18 18 20 19 21 19 19 19 19 19 19 20 22 22 20 nan 22 21 21 21 22 22 23 nan nan nan nan nan nan nan nan nan nan nan nan nan nan nan nan nan nan nan nan 21 nan nan nan nan nan nan nan nan nan nan nan nan 42 nan nan nan nan nan nan nan nan nan nan nan nan nan nan nan nan nan nan nan nan nan nan nan nan nan nan nan
18 21 19 20 21 23 25 23 22 21 22 21 21 22 24 24 23 25 nan nan nan nan nan nan nan nan nan nan nan nan nan nan nan nan nan nan nan nan nan nan nan nan nan nan 21 nan nan nan nan nan nan 32 nan nan nan nan nan 41 nan nan nan nan nan nan nan nan nan nan nan nan nan nan nan nan nan nan nan nan nan nan nan nan nan nan nan
20 21 22 21 22 23 26 25 24 26 26 26 25 25 26 25 26 26 nan nan nan nan 27 nan nan nan 26 26 25 nan 23 24 nan nan nan nan nan nan nan nan nan nan nan nan nan nan nan nan nan nan nan nan nan nan nan nan nan nan nan nan nan 33 41 nan nan nan nan nan nan nan nan nan nan nan nan nan nan nan nan nan nan nan nan nan nan
21 20 22 23 23 24 27 28 30 30 31 31 31 29 29 28 27 26 nan nan 31 30 29 nan 29 nan nan nan 28 25 24 24 25 24 24 23 22 21 nan nan nan nan nan nan nan nan nan nan nan 30 nan 33 35 33 33 32 nan nan nan nan nan nan nan nan nan nan nan nan nan nan nan nan nan nan nan nan nan nan nan nan nan nan nan nan nan
20 21 22 24 24 26 28 29 31 33 33 34 35 34 33 32 30 29 nan nan nan 32 31 28 28 30 nan nan nan nan nan nan nan 25 25 25 23 22 22 21 18 14 16 nan nan nan nan nan nan nan 32 nan nan nan nan 34 nan nan nan 31 30 31 nan nan nan nan nan nan nan nan nan nan nan nan nan nan nan nan nan nan nan nan nan nan nan
23 25 26 27 27 29 30 32 33 35 36 34 37 37 38 36 34 32 32 34 34 nan 33 31 29 29 29 nan 28 nan nan nan nan nan nan 25 25 24 22 21 20 20 20 18 16 22 nan nan nan nan nan nan nan nan nan nan nan nan nan nan nan 30 32 34 nan nan nan nan nan nan nan nan nan nan nan nan nan nan nan nan nan nan nan nan nan
28 30 30 30 32 34 35 35 36 37 40 39 39 40 40 40 39 nan nan nan nan nan nan nan nan nan 31 31 30 29 nan nan nan 26 27 26 25 23 22 23 23 23 23 21 18 17 24 nan nan nan nan nan nan nan nan nan nan 36 nan nan 35 33 34 35 35 39 nan nan nan nan nan nan nan nan nan nan nan nan nan nan nan nan nan nan nan
32 33 35 35 36 38 39 38 38 39 42 42 40 41 42 42 39 35 34 38 42 41 41 nan nan nan 33 32 nan 30 30 29 29 28 27 27 26 25 24 24 24 25 25 24 21 20 22 nan nan nan nan nan nan nan nan nan nan 37 37 36 35 nan 36 38 39 39 nan nan nan nan nan nan nan nan nan nan nan nan nan nan nan nan nan nan nan
33 35 38 37 37 43 46 46 43 42 42 41 40 42 43 43 40 39 39 39 39 40 42 44 45 nan nan 36 33 31 31 30 nan nan 28 nan nan nan nan nan nan nan 30 27 25 23 22 25 nan nan nan nan nan nan nan nan nan nan nan 38 37 37 38 40 nan nan nan nan nan nan nan nan nan nan nan nan nan nan nan nan nan nan nan nan nan
35 35 40 41 41 46 47 46 44 41 40 39 39 41 42 42 40 39 41 41 41 42 43 44 45 48 48 44 36 32 31 30 30 28 nan nan nan nan nan nan nan nan nan nan nan 26 24 25 25 nan 28 nan nan nan nan nan 35 36 37 38 39 39 41 42 43 44 nan nan nan nan nan nan nan nan nan nan nan nan nan nan nan nan nan nan nan
39 39 42 42 43 44 43 41 41 39 39 38 39 39 41 41 42 42 41 42 42 43 44 45 46 49 51 49 40 32 nan 30 30 29 29 nan nan nan nan 28 29 29 31 30 29 27 26 24 26 28 30 30 32 32 33 36 nan 37 39 39 39 40 42 44 44 43 43 nan nan nan nan nan nan nan nan nan nan nan nan nan nan nan nan nan nan
38 39 38 38 37 40 40 41 41 40 40 40 39 40 40 41 43 43 41 41 42 44 46 47 47 47 51 50 40 33 31 29 30 30 nan nan nan nan 28 29 30 30 30 30 29 28 26 24 26 31 31 32 33 34 36 37 38 nan nan nan 40 42 44 43 43 42 nan nan nan nan nan nan nan nan nan nan nan nan nan nan nan nan nan nan nan
34 34 35 37 38 41 43 44 43 42 42 41 40 40 39 39 40 41 41 40 41 46 48 47 49 52 53 49 38 33 31 29 30 31 31 nan nan nan 28 29 30 31 29 28 30 28 27 28 30 29 32 33 35 38 38 nan nan nan nan nan 42 44 45 44 nan 41 41 42 nan 46 46 42 nan nan nan nan nan nan nan nan nan nan nan nan nan
36 37 40 43 44 47 48 48 47 46 44 43 40 38 36 36 38 39 40 40 40 43 45 46 50 52 51 47 36 33 33 30 30 31 31 30 31 28 29 28 29 30 29 30 30 27 27 30 32 31 31 35 36 37 40 nan nan nan nan 43 44 46 46 nan 42 40 39 40 41 nan 39 34 31 31 31 nan nan nan nan nan nan nan nan nan nan
39 41 43 45 46 47 49 49 49 46 46 45 41 36 34 35 37 38 37 37 39 39 40 43 46 45 43 41 nan 34 35 32 32 33 33 33 32 29 30 31 30 29 28 29 28 27 30 33 34 nan 37 39 40 nan nan nan nan 45 46 45 43 nan nan 43 40 38 39 39 38 37 36 36 34 32 27 nan nan nan nan nan nan nan nan nan nan
37 40 42 46 48 47 48 49 49 46 45 44 38 34 34 35 37 38 36 36 36 39 42 42 42 41 38 35 nan nan 35 36 35 34 33 34 33 30 29 28 29 28 28 29 29 31 34 34 34 38 40 41 43 44 nan nan nan nan nan nan nan nan 42 40 40 39 38 37 37 34 33 33 30 28 29 30 30 26 25 24 nan nan nan nan nan
36 38 40 43 47 47 47 48 46 42 39 35 33 37 37 37 38 36 36 35 35 38 42 42 43 42 36 30 32 33 34 33 29 32 36 38 33 29 28 28 29 30 29 29 31 33 35 35 nan nan nan nan nan nan nan nan nan nan nan nan nan 43 42 39 38 38 38 36 34 33 32 32 30 28 28 28 28 27 26 25 26 nan nan nan nan
35 37 39 42 45 45 44 45 44 39 34 30 39 42 41 37 37 37 37 37 34 36 39 39 41 43 39 32 30 nan 36 38 32 26 32 35 30 26 25 26 29 30 29 30 34 35 36 nan nan nan nan nan nan nan nan nan nan nan nan 46 44 42 39 36 nan 36 39 37 36 31 29 30 30 28 28 28 27 26 25 25 nan nan nan nan nan
38 39 41 43 43 42 39 39 40 38 34 38 44 44 39 37 37 37 37 36 34 35 39 40 39 41 39 32 29 35 42 44 40 34 31 23 24 25 25 26 25 nan nan 36 38 39 40 nan nan nan nan nan nan nan nan nan 45 46 46 44 42 39 37 37 36 33 37 38 34 30 25 28 30 27 26 28 26 26 25 nan nan nan nan nan nan
42 43 45 47 45 42 38 35 34 36 35 44 43 43 40 40 39 37 37 35 31 34 40 42 40 38 38 34 34 40 41 42 39 28 23 23 25 23 23 27 28 nan nan nan nan 42 44 nan nan nan nan nan nan 45 46 46 47 44 44 44 42 39 37 35 34 32 34 37 34 29 24 26 29 28 nan 28 27 27 nan nan nan nan nan nan nan
45 47 47 46 45 43 39 35 34 34 35 43 45 45 44 42 39 36 35 36 31 34 39 42 41 38 36 38 38 34 39 44 34 23 22 26 27 30 25 28 31 38 44 45 nan nan nan nan 45 42 43 46 46 46 46 46 nan nan nan nan nan nan nan nan nan nan 30 34 32 nan 25 26 28 28 26 28 27 27 28 nan nan nan nan nan nan
47 49 49 49 47 45 42 39 37 38 38 44 44 44 44 42 40 37 33 35 32 34 37 38 40 36 38 42 38 34 36 38 31 25 26 28 29 28 27 28 35 38 40 nan 46 50 52 51 47 45 44 nan nan nan nan nan nan nan nan nan nan nan nan nan nan 28 29 31 31 31 26 26 29 29 28 nan nan nan nan nan nan nan nan nan nan
52 55 55 52 51 49 46 45 43 40 40 44 42 41 41 40 39 nan 33 36 35 36 37 39 39 40 39 37 36 34 36 33 27 21 21 26 28 26 27 34 38 39 40 nan nan nan nan nan nan nan nan nan nan nan nan nan nan nan nan nan nan nan nan nan nan nan nan nan nan 31 nan nan nan nan nan nan nan nan nan nan nan nan nan nan nan
53 56 56 56 54 51 50 49 46 42 40 43 44 42 41 40 37 31 34 35 36 38 39 42 42 40 39 36 33 32 31 31 29 29 30 29 25 26 32 40 41 38 nan nan 54 nan nan nan nan nan nan nan nan nan nan nan nan nan nan nan nan nan nan nan nan nan nan nan nan nan nan nan nan nan nan nan nan nan nan nan nan nan nan nan nan
53 53 55 58 57 53 51 47 42 40 40 37 40 39 40 41 37 35 35 36 37 39 41 42 42 41 36 34 30 28 28 29 27 34 37 35 31 32 nan nan nan nan nan nan nan 51 nan nan nan nan nan nan nan nan nan nan nan nan nan nan nan nan nan nan nan nan nan nan nan nan nan nan nan nan nan nan nan nan nan nan nan nan nan nan nan
55 57 60 61 56 51 48 42 39 40 39 37 37 38 39 39 36 35 36 36 37 38 40 41 42 41 38 33 26 22 26 28 33 37 37 35 36 nan nan nan nan nan nan nan nan nan nan nan nan 48 47 50 51 50 49 nan nan nan nan nan nan nan nan nan nan nan nan nan nan nan nan nan nan nan nan nan nan nan nan nan nan nan nan nan nan
Wind_Direction
66 63 57 54 55 52 58 49 47 58 55 49 57 60 62 64 67 68 70 71 70 75 76 72 68 65 71 79 77 70 58 53 57 55 60 55 25 353 353 356 0 359 353 345 343 341 331 326 313 320 321 321 317 309 302 295 293 294 297 301 307 312 315 318 319 319 320 323 330 334 332 334 338 342 351 357 0 358 358 0 3 5 7 10 17
66 61 59 54 52 48 47 49 45 40 47 49 48 48 55 56 59 60 65 65 67 68 69 70 66 65 57 61 70 69 67 60 50 47 44 36 25 354 353 356 0 11 4 354 354 351 337 326 327 331 337 334 327 321 310 301 292 287 287 291 295 301 305 309 312 315 317 319 322 330 338 337 340 346 350 353 360 4 4 5 7 9 11 16 19
69 64 59 53 47 46 46 44 38 37 36 39 39 43 43 45 45 52 53 54 55 53 56 61 51 52 43 50 52 55 53 48 52 43 28 17 9 353 355 352 2 7 10 13 4 5 357 346 342 343 344 338 332 328 322 313 298 287 283 284 289 291 294 297 301 307 310 313 314 320 329 337 344 350 352 352 359 5 8 8 11 13 15 19 23
67 61 57 55 53 49 45 37 40 37 26 36 35 35 34 35 31 37 44 43 41 44 37 47 42 37 45 44 28 38 42 nan nan nan nan nan 17 18 360 356 358 5 11 12 19 13 13 10 3 359 358 347 338 333 332 327 315 295 282 283 285 286 287 288 289 291 297 301 304 308 316 329 338 345 354 360 6 7 9 14 14 16 18 22 26
49 52 49 49 53 45 45 39 41 35 28 19 19 25 30 20 20 14 29 36 40 35 31 32 37 16 34 29 22 27 25 30 20 20 nan nan 18 350 11 354 355 2 6 12 15 20 21 22 22 17 10 6 354 342 338 341 337 324 300 288 282 281 279 277 277 278 277 283 291 296 301 312 327 338 347 359 9 16 19 21 20 22 25 26 27
38 39 43 49 44 38 41 39 23 29 26 12 5 12 27 17 18 14 11 27 27 25 21 15 6 10 26 14 26 6 8 33 nan nan nan nan 325 6 13 6 355 359 0 5 9 12 16 23 24 24 20 16 9 355 344 345 346 349 337 317 294 278 270 265 261 262 267 270 271 277 284 295 313 327 344 353 356 5 15 32 41 39 37 37 35
30 30 40 56 58 58 38 8 272 58 21 20 14 356 28 1 4 356 1 10 17 14 15 4 353 360 7 2 12 2 3 16 335 nan 360 338 353 339 312 24 13 5 352 353 1 2 5 11 17 20 19 19 12 5 351 335 344 355 357 347 323 287 261 246 236 243 253 255 256 260 266 275 288 310 332 350 357 356 359 6 25 46 49 46 49
33 32 43 51 46 37 35 6 347 345 19 20 358 0 341 10 352 353 359 356 351 7 4 353 337 358 349 357 356 346 356 346 336 360 nan nan 310 324 330 327 340 8 162 4 346 352 355 359 9 11 14 11 9 354 338 4 17 7 6 351 321 291 263 246 234 229 235 240 246 254 269 277 282 288 308 330 350 359 1 358 357 14 44 53 53
31 35 38 43 48 26 28 333 336 358 343 10 7 356 331 360 336 350 353 336 352 5 346 337 344 341 0 358 337 320 355 327 339 308 301 321 336 337 320 323 324 321 1 1 334 324 345 352 356 3 8 8 3 360 353 20 32 25 10 358 316 270 248 228 228 243 235 238 236 240 253 271 273 272 261 258 298 334 3 7 1 0 15 42 55
26 26 25 32 33 27 27 331 333 5 1 359 7 337 343 333 345 342 333 326 342 337 333 326 322 335 336 354 315 324 332 331 324 320 331 334 320 nan 328 319 316 316 313 312 349 329 336 347 353 353 354 355 354 353 1 11 23 26 16 1 333 295 262 232 238 237 249 234 221 232 233 232 244 256 268 262 251 256 252 281 13 22 26 29 42
14 12 12 9 7 8 360 343 350 357 336 338 344 350 333 339 329 318 318 331 328 331 323 328 338 341 348 344 318 333 333 322 313 319 320 nan nan nan nan 310 306 315 314 320 322 317 319 326 340 343 341 339 339 346 354 1 3 4 4 354 341 331 335 21 280 271 264 258 227 230 246 244 242 247 257 266 267 260 251 249 251 277 33 51 56
3 354 349 356 352 346 347 333 337 323 313 336 352 323 329 322 324 314 325 329 325 328 330 nan 336 326 331 334 338 330 329 320 326 333 340 nan nan nan nan nan 299 302 303 304 307 309 314 309 317 302 307 322 336 330 329 328 320 314 310 313 322 325 350 2 329 330 316 324 286 247 236 238 238 231 236 244 252 258 255 253 249 245 193 164 103
346 343 343 343 339 336 328 319 312 309 294 333 332 310 297 305 308 316 319 322 327 329 330 328 327 323 325 347 324 338 335 337 343 344 nan nan nan nan nan nan nan nan 296 nan 302 301 308 304 300 298 311 324 320 323 332 323 310 300 297 293 301 323 334 315 285 305 339 335 316 294 263 248 243 237 232 227 230 240 245 247 244 232 218 193 186
338 338 331 327 324 325 322 314 296 293 321 314 294 293 295 301 304 313 320 nan 315 nan 292 307 320 335 316 324 330 328 334 338 359 nan nan nan nan nan nan nan nan nan nan nan 302 298 293 295 293 296 294 297 313 319 311 301 296 289 285 283 286 292 292 295 300 305 307 321 325 322 311 288 264 249 242 236 228 231 236 240 241 235 223 208 200
315 317 313 317 316 316 312 305 304 301 290 290 289 291 294 294 305 306 307 315 321 309 308 309 314 304 304 nan 321 340 338 348 349 nan nan nan nan nan nan nan nan nan nan nan nan nan nan 285 288 290 289 291 296 294 297 301 296 288 282 279 280 284 286 287 291 289 288 287 289 292 293 291 285 268 251 241 235 231 234 236 239 238 230 217 205
302 299 302 305 312 310 305 304 298 289 285 283 286 289 288 296 304 305 299 305 nan 317 314 312 301 297 304 305 332 338 nan 337 344 nan nan nan nan nan nan nan nan nan nan nan nan nan nan nan 296 295 293 290 285 288 293 294 296 287 282 282 280 281 283 283 282 280 277 272 267 264 262 263 272 274 266 255 243 238 235 236 237 238 237 227 212
299 302 301 299 299 302 300 295 293 291 284 283 282 290 295 300 301 296 308 301 nan nan 305 303 298 288 297 316 312 326 297 317 nan nan nan nan nan nan nan nan nan nan nan nan nan nan nan nan nan 306 306 301 295 290 286 284 296 295 282 277 nan nan nan 280 280 281 278 273 270 268 267 261 259 261 262 257 248 241 240 235 230 234 236 231 220
296 297 300 299 299 298 295 292 293 290 287 281 280 284 293 297 302 307 305 304 297 295 nan nan 295 296 301 303 302 nan 307 308 nan 314 318 nan nan nan nan nan nan nan nan nan nan nan nan nan nan nan nan nan nan nan nan 289 286 279 280 nan nan nan nan nan 274 275 275 273 270 268 263 259 258 255 256 254 252 247 241 238 234 230 233 236 229
300 300 300 299 295 291 292 292 292 291 288 284 287 295 301 303 296 300 295 286 294 298 nan nan 291 nan nan 300 295 304 299 306 301 310 nan 315 nan nan nan nan nan nan nan nan nan nan nan nan nan nan nan nan nan nan nan nan nan nan nan nan nan nan nan nan nan nan nan nan nan nan 264 261 258 255 253 255 257 254 249 245 239 235 235 238 234
298 298 298 296 293 290 292 292 290 290 289 288 286 290 280 283 287 287 286 286 288 286 287 276 nan 293 285 288 302 295 292 302 298 nan 304 nan 317 nan nan nan nan nan nan nan nan nan nan nan nan nan nan nan nan nan nan nan nan nan nan nan nan nan nan nan nan nan nan nan nan nan nan nan nan 258 255 253 251 251 255 251 241 235 234 236 237
294 296 299 300 297 296 296 294 292 290 287 288 292 292 285 283 285 280 280 282 281 280 277 280 nan nan 286 290 284 297 305 nan 301 nan nan nan nan nan nan nan nan nan nan nan nan nan nan nan nan nan nan nan nan nan nan nan nan nan nan nan nan nan nan nan nan nan nan nan nan nan nan nan nan nan nan 254 251 248 245 247 247 242 238 234 231
301 301 303 308 308 306 303 301 296 292 288 287 284 280 282 283 282 281 279 274 274 277 283 281 283 271 284 286 290 281 nan nan nan nan nan nan nan nan nan nan nan nan nan nan nan nan nan nan nan nan nan nan nan nan nan nan nan nan nan nan nan nan nan nan nan nan nan nan nan nan nan nan nan nan nan nan nan nan nan 244 242 240 236 234 232
299 300 307 316 321 317 313 309 303 299 293 285 279 280 292 292 288 289 284 282 281 282 279 281 277 276 281 285 284 nan nan nan nan nan nan nan nan nan nan nan nan nan nan nan nan nan nan nan nan nan nan nan nan nan nan nan nan nan nan nan nan nan nan nan nan nan nan nan nan nan nan nan nan nan nan nan nan nan nan nan nan 240 239 235 232
301 301 307 320 321 324 325 323 313 309 304 301 297 297 nan 295 294 292 290 289 286 281 284 285 288 286 285 nan nan nan nan nan nan nan nan nan nan nan nan nan nan nan nan nan nan nan nan nan nan nan nan nan nan nan nan nan nan nan nan nan nan nan nan nan nan nan nan nan nan nan nan nan nan nan nan nan nan nan nan nan nan nan nan 236 233
309 313 316 321 320 326 328 325 321 321 319 314 313 310 301 293 294 296 294 295 293 293 290 nan 292 nan nan nan nan nan nan nan nan nan nan nan nan nan nan nan nan nan nan nan nan nan nan nan nan nan nan nan nan nan nan nan nan nan nan nan nan nan nan nan nan nan nan nan nan nan nan nan nan nan nan nan nan nan nan nan nan nan nan nan nan
322 324 322 321 321 321 321 321 321 321 321 318 318 317 314 310 nan 299 299 296 295 297 296 293 nan nan nan nan nan nan nan nan nan nan nan nan nan nan nan nan nan nan nan nan 283 nan nan nan nan nan nan nan nan nan nan nan nan 314 nan nan nan nan nan nan nan nan nan nan nan nan nan nan nan nan nan nan nan nan nan nan nan nan nan nan nan
325 323 325 321 320 317 317 322 320 317 314 317 318 316 316 316 309 306 nan nan nan nan nan nan nan nan nan nan nan nan nan nan nan nan nan nan nan nan nan nan nan nan nan nan 292 nan nan nan nan nan nan 309 nan nan nan nan nan 308 nan nan nan nan nan nan nan nan nan nan nan nan nan nan nan nan nan nan nan nan nan nan nan nan nan nan nan
323 321 322 320 318 319 319 321 317 316 317 318 318 315 313 313 311 309 nan nan nan nan 302 nan nan nan 289 285 282 nan 272 275 nan nan nan nan nan nan nan nan nan nan nan nan nan nan nan nan nan nan nan nan nan nan nan nan nan nan nan nan nan 305 315 nan nan nan nan nan nan nan nan nan nan nan nan nan nan nan nan nan nan nan nan nan nan
318 319 317 312 313 317 316 318 318 317 315 315 316 315 310 309 308 307 nan nan 300 300 300 nan 296 nan nan nan 292 287 282 279 281 282 285 286 290 289 nan nan nan nan nan nan nan nan nan nan nan 295 nan 305 307 305 303 300 nan nan nan nan nan nan nan nan nan nan nan nan nan nan nan nan nan nan nan nan nan nan nan nan nan nan nan nan nan
314 311 310 312 313 315 313 314 316 316 314 312 312 313 312 308 306 305 nan nan nan 297 296 293 292 292 nan nan nan nan nan nan nan 286 286 288 287 283 280 279 278 278 279 nan nan nan nan nan nan nan 299 nan nan nan nan 303 nan nan nan 295 295 293 nan nan nan nan nan nan nan nan nan nan nan nan nan nan nan nan nan nan nan nan nan nan nan
311 310 312 314 316 315 314 316 316 317 316 314 311 310 310 308 305 302 304 305 302 nan 293 294 292 289 286 nan 285 nan nan nan nan nan nan 280 281 278 272 270 273 277 277 279 284 290 nan nan nan nan nan nan nan nan nan nan nan nan nan nan nan 291 288 291 nan nan nan nan nan nan nan nan nan nan nan nan nan nan nan nan nan nan nan nan nan
318 318 319 321 318 318 318 320 320 318 314 311 311 309 308 307 304 nan nan nan nan nan nan nan nan nan 287 286 284 283 nan nan nan 280 278 280 280 277 270 265 267 273 278 281 285 285 292 nan nan nan nan nan nan nan nan nan nan 297 nan nan 294 294 290 291 296 302 nan nan nan nan nan nan nan nan nan nan nan nan nan nan nan nan nan nan nan
322 322 321 321 323 326 327 325 324 321 317 313 309 310 312 313 310 304 304 309 310 306 302 nan nan nan 282 282 nan 276 277 279 278 278 278 279 279 279 275 270 270 274 278 281 279 282 290 nan nan nan nan nan nan nan nan nan nan 295 295 294 293 nan 291 290 290 295 nan nan nan nan nan nan nan nan nan nan nan nan nan nan nan nan nan nan nan
321 323 323 324 328 330 330 327 324 322 319 319 320 318 319 320 319 313 312 310 306 305 304 302 298 nan nan 287 281 278 277 276 nan nan 280 nan nan nan nan nan nan nan 281 285 285 283 286 290 nan nan nan nan nan nan nan nan nan nan nan 292 290 289 289 289 nan nan nan nan nan nan nan nan nan nan nan nan nan nan nan nan nan nan nan nan nan
321 329 328 328 325 327 330 329 328 326 319 319 318 318 320 322 321 318 315 313 313 311 309 306 305 301 296 290 285 280 276 276 277 277 nan nan nan nan nan nan nan nan nan nan nan 287 289 292 296 nan 295 nan nan nan nan nan 292 292 291 291 290 289 289 291 291 291 nan nan nan nan nan nan nan nan nan nan nan nan nan nan nan nan nan nan nan
330 335 334 333 332 332 334 333 334 333 331 326 323 322 321 323 322 320 318 316 313 311 309 309 310 309 302 292 286 286 nan 278 277 277 275 nan nan nan nan 273 276 280 283 286 290 289 290 294 296 300 299 296 293 293 293 294 nan 293 291 289 290 291 291 292 294 294 294 nan nan nan nan nan nan nan nan nan nan nan nan nan nan nan nan nan nan
341 340 340 338 335 335 334 333 333 335 332 328 325 322 320 321 321 319 317 315 313 311 310 309 310 307 299 292 289 292 291 282 277 277 nan nan nan nan 277 279 280 281 282 285 287 292 296 299 300 302 300 299 300 301 299 297 296 nan nan nan 289 291 293 294 294 294 nan nan nan nan nan nan nan nan nan nan nan nan nan nan nan nan nan nan nan
351 345 341 339 336 334 333 332 332 332 328 327 324 321 320 318 316 317 314 312 312 310 311 312 311 305 294 289 292 297 294 285 279 277 277 nan nan nan 281 282 280 280 284 288 288 292 297 298 301 302 300 301 303 301 296 nan nan nan nan nan 290 292 293 294 nan 295 295 298 nan 303 307 306 nan nan nan nan nan nan nan nan nan nan nan nan nan
346 343 342 338 335 334 334 332 331 328 327 328 327 324 318 314 315 317 316 313 310 310 310 311 313 308 297 289 292 298 295 289 282 279 279 278 276 280 283 281 279 284 286 290 294 295 293 296 301 303 303 304 302 297 295 nan nan nan nan 288 292 293 295 nan 296 296 298 300 302 nan 300 294 290 289 294 nan nan nan nan nan nan nan nan nan nan
344 344 341 335 331 331 331 330 327 325 326 327 328 325 318 315 316 317 315 313 312 313 312 309 309 309 300 287 nan 294 298 293 284 278 280 280 279 283 286 283 281 283 286 288 290 291 294 299 304 nan 306 305 303 nan nan nan nan 292 290 289 290 nan nan 297 297 297 298 300 299 294 291 293 298 302 305 nan nan nan nan nan nan nan nan nan nan
339 340 337 333 329 328 328 326 324 323 324 324 323 321 319 318 317 317 317 314 315 314 310 307 307 308 304 291 nan nan 294 296 291 285 287 285 285 288 286 280 279 282 284 287 289 292 295 300 303 305 305 304 302 298 nan nan nan nan nan nan nan nan 298 298 299 300 299 299 297 292 288 286 285 282 279 278 282 288 292 299 nan nan nan nan nan
333 331 331 329 326 325 326 324 322 321 323 323 323 323 320 316 315 312 308 307 312 311 308 308 306 305 304 294 279 278 290 298 295 285 287 289 291 290 284 280 280 281 283 286 291 294 296 299 nan nan nan nan nan nan nan nan nan nan nan nan nan 297 299 299 299 301 300 297 291 288 286 285 283 280 280 279 277 275 269 269 268 nan nan nan nan
328 324 326 326 322 320 324 323 321 320 319 318 316 317 317 317 311 307 306 306 308 305 302 300 300 300 300 295 279 nan 282 290 288 292 295 295 292 292 289 282 279 279 284 294 301 301 300 nan nan nan nan nan nan nan nan nan nan nan nan 295 297 298 299 296 nan 296 298 292 288 284 284 282 280 280 280 278 275 274 272 271 nan nan nan nan nan
325 324 323 320 317 319 323 325 321 318 318 308 313 316 314 310 305 305 302 302 307 307 302 298 298 297 297 292 279 269 272 274 266 265 274 290 294 295 296 290 289 nan nan 304 305 303 303 nan nan nan nan nan nan nan nan nan 293 294 294 296 299 299 298 297 297 298 291 287 285 282 281 279 280 279 278 278 277 274 273 nan nan nan nan nan nan
321 323 320 317 319 322 325 327 325 322 317 310 314 312 308 306 303 300 297 297 300 301 297 295 295 295 289 282 276 269 269 273 285 282 272 279 295 305 299 291 295 nan nan nan nan 307 304 nan nan nan nan nan nan 295 294 292 291 293 295 297 298 298 298 297 297 294 289 281 281 284 282 277 277 279 nan 280 279 278 nan nan nan nan nan nan nan
319 319 322 326 326 325 321 316 312 317 316 312 311 311 309 307 306 301 298 298 300 298 294 292 290 285 279 273 274 273 274 274 269 265 272 279 278 279 285 291 300 311 315 316 nan nan nan nan 303 300 298 297 297 295 293 292 nan nan nan nan nan nan nan nan nan nan 288 286 288 nan 282 283 283 280 280 279 277 274 274 nan nan nan nan nan nan
319 320 322 324 323 322 319 313 312 317 307 312 308 307 305 303 303 299 299 300 299 297 294 292 288 284 278 277 282 282 278 277 278 275 273 274 278 289 300 307 309 306 301 nan 302 302 303 304 306 306 301 nan nan nan nan nan nan nan nan nan nan nan nan nan nan 296 293 297 299 293 289 285 286 289 286 nan nan nan nan nan nan nan nan nan nan
315 316 318 321 320 318 314 309 309 313 303 302 298 299 299 300 302 nan 300 302 304 303 301 296 292 285 281 281 282 283 279 278 274 269 268 277 285 287 295 305 305 301 296 nan nan nan nan nan nan nan nan nan nan nan nan nan nan nan nan nan nan nan nan nan nan nan nan nan nan 288 nan nan nan nan nan nan nan nan nan nan nan nan nan nan nan
313 316 319 321 318 314 307 305 311 312 305 306 307 306 305 303 301 301 300 301 302 304 301 297 293 287 284 285 286 282 276 275 277 279 277 275 272 272 291 306 304 296 nan nan 301 nan nan nan nan nan nan nan nan nan nan nan nan nan nan nan nan nan nan nan nan nan nan nan nan nan nan nan nan nan nan nan nan nan nan nan nan nan nan nan nan
310 313 314 316 313 307 304 308 311 307 302 302 305 307 306 307 308 305 302 303 305 303 299 296 292 289 289 291 286 279 279 280 281 283 282 280 275 282 nan nan nan nan nan nan nan 299 nan nan nan nan nan nan nan nan nan nan nan nan nan nan nan nan nan nan nan nan nan nan nan nan nan nan nan nan nan nan nan nan nan nan nan nan nan nan nan
301 302 304 306 300 294 295 300 299 299 304 306 307 306 305 309 309 305 304 305 304 301 299 297 292 289 290 291 289 282 280 280 291 292 292 290 287 nan nan nan nan nan nan nan nan nan nan nan nan 304 303 306 307 306 308 nan nan nan nan nan nan nan nan nan nan nan nan nan nan nan nan nan nan nan nan nan nan nan nan nan nan nan nan nan nan